Aberdeen, SD

8:08 PM CDT on May 24, 2017 (GMT -0500)
Aberdeen Regional

Weather History for KABR - February, 2014

Change the Weather History Date:

Thursday, February 13, 2014

  Actual Average Record
Temperature  
Mean Temperature 22 °F 17 °F  
Max Temperature 38 °F 27 °F 60 °F (1901)
Min Temperature 5 °F 6 °F -34 °F (1905)
Degree Days  
Heating Degree Days 43 48  
Month to date heating degree days 825 651  
Since 1 July heating degree days 6356 5785  
Cooling Degree Days 0 0  
Month to date cooling degree days 0 0  
Year to date cooling degree days 0 0  
Moisture  
Dew Point 7 °F    
Average Humidity 77    
Maximum Humidity 88    
Minimum Humidity 66    
Precipitation  
Precipitation T in 0.02 in 0.50 in (1915)
Month to date precipitation 0.06 0.21  
Year to date precipitation 0.34 0.68  
Snow  
Snow T in 0.20 in 5.00 in (1915)
Month to date snowfall 1.0 2.8  
Since 1 July snowfall 23.9 23.8  
Snow Depth 3.00 in    
Sea Level Pressure  
Sea Level Pressure 29.75 in    
Wind  
Wind Speed 17 mph (NNW)    
Max Wind Speed 38 mph    
Max Gust Speed 44 mph    
Visibility 9 miles    
Events Snow    
T = Trace of Precipitation, MM = Missing Value Source: NWS Daily Summary

Daily Weather History Graph

Daily Weather History Graph

Search for Another Location

Airport or City:

Trip Planner

Search our weather history database for the weather conditions in past years. The results will help you decide how hot, cold, wet, or windy it might be!

Date:

Astronomy

Feb. 13, 2014 Rise Set
Actual Time 7:38 AM CST 5:58 PM CST
Civil Twilight 7:07 AM CST 6:28 PM CST
Nautical Twilight 6:33 AM CST 7:03 PM CST
Astronomical Twilight 5:58 AM CST 7:37 PM CST
Moon 5:07 PM CST (2/13) 6:33 AM CST (2/13)
Length of Visible Light 11h 20m
Length of Day
10h 19m
Waxing Gibbous, 99% of the Moon is Illuminated
Feb 13
Waxing Gibbous
Feb 14
Full
Feb 22
Last Quarter
Mar 1
New
Mar 8
First Quarter

Hourly Weather History & Observations

Time (CST) Temp. Windchill Dew Point Humidity Pressure Visibility Wind Dir Wind Speed Gust Speed Precip Events Conditions
12:53 AM 25.0 °F 10.2 °F 21.0 °F 85% 29.45 in 10.0 mi South 21.9 mph - N/A   Clear
1:53 AM 26.1 °F 14.0 °F 21.9 °F 84% 29.44 in 10.0 mi SSW 15.0 mph - N/A   Clear
2:53 AM 30.0 °F 20.5 °F 25.0 °F 82% 29.45 in 10.0 mi West 11.5 mph - N/A   Clear
3:53 AM 36.0 °F 25.0 °F 28.9 °F 76% 29.48 in 10.0 mi WNW 20.7 mph 26.5 mph N/A   Partly Cloudy
4:53 AM 30.9 °F 17.2 °F 26.1 °F 82% 29.55 in 10.0 mi NW 25.3 mph 31.1 mph N/A   Mostly Cloudy
5:04 AM 30.9 °F 15.9 °F 24.1 °F 76% 29.52 in 10.0 mi NW 31.1 mph 43.7 mph N/A   Mostly Cloudy
5:33 AM 23.0 °F 4.9 °F 18.0 °F 81% 29.56 in 2.5 mi NNW 32.2 mph 42.6 mph 0.00 in Snow Light Snow
5:42 AM 19.9 °F 1.3 °F 15.1 °F 81% 29.58 in 4.0 mi NNW 29.9 mph 40.3 mph 0.00 in   Overcast
5:53 AM 18.0 °F -0.8 °F 12.0 °F 78% 29.67 in 10.0 mi NNW 27.6 mph 38.0 mph 0.00 in   Overcast
6:11 AM 15.1 °F -5.9 °F 9.0 °F 77% 29.63 in 3.0 mi NW 32.2 mph 43.7 mph 0.00 in   Scattered Clouds
6:53 AM 12.9 °F -8.0 °F 7.0 °F 77% 29.73 in 10.0 mi NW 28.8 mph 34.5 mph 0.00 in   Partly Cloudy
7:53 AM 10.0 °F -10.4 °F 5.0 °F 80% 29.78 in 7.0 mi NW 24.2 mph 28.8 mph 0.00 in Snow Light Snow
8:01 AM 9.0 °F -13.0 °F 3.0 °F 77% 29.72 in 4.0 mi NW 27.6 mph 35.7 mph 0.00 in Snow Light Snow
8:09 AM 8.1 °F -13.0 °F 1.9 °F 76% 29.73 in 6.0 mi NW 24.2 mph 33.4 mph 0.00 in   Haze
8:53 AM 7.0 °F -14.0 °F -0.0 °F 73% 29.82 in 10.0 mi NNW 23.0 mph - 0.00 in   Clear
9:53 AM 6.1 °F -15.7 °F -0.9 °F 73% 29.84 in 10.0 mi NNW 24.2 mph 32.2 mph N/A   Clear
10:53 AM 7.0 °F -14.9 °F -2.0 °F 67% 29.86 in 10.0 mi NNW 25.3 mph - N/A   Clear
11:53 AM 8.1 °F -11.7 °F -0.9 °F 67% 29.88 in 10.0 mi NNW 20.7 mph - N/A   Clear
12:53 PM 8.1 °F -11.2 °F -0.0 °F 70% 29.87 in 10.0 mi NNW 19.6 mph - N/A   Clear
1:53 PM 9.0 °F -7.3 °F 1.0 °F 70% 29.85 in 10.0 mi NW 13.8 mph - N/A   Clear
2:53 PM 10.0 °F -8.1 °F 1.9 °F 70% 29.86 in 10.0 mi NW 18.4 mph - N/A   Clear
3:53 PM 10.9 °F -3.4 °F 1.9 °F 67% 29.84 in 10.0 mi NNW 11.5 mph - N/A   Clear
4:53 PM 10.0 °F -4.5 °F 1.9 °F 70% 29.86 in 10.0 mi NNW 11.5 mph - N/A   Clear
5:53 PM 9.0 °F -3.2 °F 1.9 °F 73% 29.86 in 10.0 mi North 8.1 mph - N/A   Clear
6:53 PM 9.0 °F -0.9 °F 3.0 °F 77% 29.90 in 10.0 mi WNW 5.8 mph - N/A   Overcast
7:53 PM 9.0 °F -0.9 °F 1.9 °F 73% 29.89 in 10.0 mi NNW 5.8 mph - N/A   Mostly Cloudy
8:53 PM 9.0 °F -2.2 °F 3.0 °F 77% 29.89 in 10.0 mi North 6.9 mph - N/A   Overcast
9:14 PM 9.0 °F -2.2 °F 3.0 °F 77% 29.80 in 10.0 mi NE 6.9 mph - N/A   Overcast
9:22 PM 8.1 °F -3.2 °F 3.0 °F 80% 29.80 in 10.0 mi NE 6.9 mph - N/A   Overcast
9:53 PM 8.1 °F -5.3 °F 3.0 °F 80% 29.88 in 10.0 mi NE 9.2 mph - N/A   Overcast
10:53 PM 6.1 °F -8.7 °F 1.0 °F 80% 29.88 in 10.0 mi NE 10.4 mph - N/A   Overcast
11:53 PM 5.0 °F -10.0 °F -0.0 °F 80% 29.92 in 10.0 mi North 10.4 mph - N/A   Overcast